Date,TemperatureHighF,TemperatureAvgF,TemperatureLowF,DewpointHighF,DewpointAvgF,DewpointLowF,HumidityHigh,HumidityAvg,HumidityLow,PressureMaxIn,PressureMinIn,WindSpeedMaxMPH,WindSpeedAvgMPH,GustSpeedMaxMPH,PrecipitationSumIn
2013-1-1,29.7,17.3,6.7,15.0,7.9,3.6,90,68,35,30.45,30.27,5,2,7,0.00
2013-1-2,30.0,18.9,10.1,10.4,4.0,1.3,69,53,31,30.46,30.38,8,2,14,0.00
2013-1-3,24.8,20.6,17.2,0.9,-1.3,-3.8,46,38,32,30.48,30.44,4,2,7,0.00
2013-1-4,46.5,29.4,19.2,10.2,3.5,-4.6,63,35,18,30.44,30.15,5,2,9,0.00
2013-1-5,37.1,26.2,14.4,16.3,11.9,6.3,74,55,38,30.45,30.19,7,2,10,0.00
2013-1-6,54.5,34.0,15.9,17.7,8.2,-0.6,56,36,17,30.44,30.02,6,3,8,0.00
2013-1-7,50.5,39.8,28.5,12.9,9.7,6.1,46,29,17,30.04,29.80,7,3,10,0.00
2013-1-8,51.9,40.3,30.7,19.6,13.1,3.4,58,34,22,30.22,29.79,7,2,10,0.00
2013-1-9,56.9,40.1,26.1,20.9,17.5,13.3,59,41,21,30.33,30.01,13,7,23,0.00
2013-1-10,53.1,43.8,34.2,17.3,11.7,1.2,42,28,12,30.00,29.42,11,7,17,0.00
2013-1-11,43.8,35.9,25.8,26.3,18.6,13.9,92,52,31,29.43,29.19,10,5,24,0.00
2013-1-12,2.0,0.2,-1.2,-1.7,-3.4,-4.9,86,85,82,30.40,30.38,0,0,0,0.00
2013-1-13,11.0,2.2,-4.4,2.7,-2.4,-8.1,88,81,67,30.55,30.40,6,1,8,0.00
2013-1-14,14.4,3.0,-3.6,5.5,-1.3,-6.5,89,82,62,30.58,30.45,3,1,5,0.00
2013-1-15,30.0,17.5,-3.1,15.6,3.7,-7.0,84,57,33,30.55,30.42,5,2,8,0.00
2013-1-16,42.9,28.7,23.8,20.1,14.7,13.2,64,56,40,30.42,30.35,4,2,6,0.00
2013-1-18,55.9,53.1,46.0,5.3,2.8,-0.2,17,13,11,30.21,30.08,6,2,10,0.00
2013-1-19,59.6,47.5,36.5,9.3,4.9,-3.7,31,19,8,30.18,30.13,5,2,7,0.00
2013-1-20,47.6,33.0,21.6,15.9,11.5,6.0,74,43,20,30.30,30.12,11,3,17,0.00
2013-1-21,54.9,37.7,18.9,15.0,8.6,-3.6,76,38,12,30.31,30.13,8,3,14,0.00
2013-1-22,62.2,45.2,33.8,3.0,-5.9,-21.6,25,14,3,30.14,30.00,10,4,19,0.00
2013-1-23,61.6,45.8,32.1,12.0,1.0,-8.9,32,16,8,30.15,30.05,10,3,15,0.00
2013-1-24,63.7,49.9,37.8,26.1,12.5,0.9,56,24,9,30.08,29.85,8,2,15,0.00
2013-1-25,56.2,42.0,30.9,28.1,24.1,19.9,68,50,32,30.09,29.96,9,3,14,0.00
2013-1-26,40.7,32.7,29.8,26.0,24.2,22.5,77,71,55,30.04,29.99,4,2,7,0.00
2013-1-27,56.7,47.3,39.1,32.8,25.0,17.1,63,43,29,29.73,29.66,8,4,17,0.01
2013-1-28,56.3,38.5,24.6,29.0,24.4,18.6,94,61,28,29.70,29.41,11,4,19,0.00
2013-1-29,29.0,23.0,17.3,22.7,14.4,5.4,94,72,38,30.12,29.68,8,4,14,0.01
2013-1-30,36.8,24.2,9.4,13.9,9.9,3.9,89,58,34,30.12,30.03,12,4,21,0.01
2013-1-31,45.9,34.8,23.3,19.7,15.8,11.9,64,47,26,30.21,30.08,11,3,17,0.01
2013-2-1,48.3,34.7,23.6,21.0,16.6,12.8,70,50,24,30.27,30.07,14,4,24,0.00
2013-2-2,56.5,36.9,22.8,20.2,14.2,3.0,80,46,12,30.37,30.25,9,4,12,0.00
2013-2-3,54.2,40.1,29.4,16.2,9.9,-6.6,55,33,8,30.31,29.88,7,2,9,0.00
2013-2-4,53.2,37.7,25.0,13.2,8.5,2.4,52,32,13,30.00,29.85,7,2,10,0.00
2013-2-5,59.9,42.8,28.1,17.4,14.5,11.5,54,34,16,30.08,29.82,11,4,16,0.00
2013-2-6,55.6,41.4,31.7,33.7,22.7,16.0,96,52,24,30.04,29.72,8,2,12,0.05
2013-2-7,46.7,33.7,21.1,30.3,24.3,8.4,96,71,21,30.20,30.04,11,3,18,0.10
2013-2-8,52.9,40.3,29.0,22.9,18.9,15.8,61,44,26,30.09,29.69,11,5,20,0.00
2013-2-9,31.6,27.3,23.1,29.0,23.8,19.5,90,86,85,29.66,29.53,8,4,13,0.00
2013-2-10,33.3,24.3,15.4,19.7,14.7,9.0,93,69,39,30.21,29.66,8,3,14,0.00
2013-2-11,29.2,21.5,15.5,16.4,13.3,10.4,87,71,53,30.24,30.12,5,2,9,0.00
2013-2-12,38.1,25.2,13.2,14.1,4.3,-8.6,88,48,14,30.26,30.18,6,2,10,0.00
2013-2-13,45.1,32.3,18.3,14.6,10.2,3.0,59,41,24,30.21,30.03,12,4,18,0.00
2013-2-14,38.2,25.7,19.4,23.3,17.4,11.6,87,72,42,30.42,30.07,12,3,18,0.00
2013-2-15,35.9,23.7,12.8,18.6,12.8,9.0,85,65,38,30.50,30.41,10,3,16,0.00
2013-2-16,53.6,44.9,31.3,17.6,12.1,9.4,45,28,18,30.32,30.00,11,5,18,0.00
2013-2-17,62.1,43.1,26.9,21.7,3.2,-11.8,77,25,5,30.00,29.48,13,6,22,0.00
2013-2-18,39.1,29.0,18.9,20.8,10.1,-4.6,88,50,16,30.19,29.71,14,3,21,0.00
2013-2-19,43.9,28.2,14.8,15.8,10.8,3.3,66,49,28,30.19,29.90,6,2,10,0.00
2013-2-20,35.6,25.4,18.3,28.6,19.2,12.4,93,78,55,29.90,29.69,6,2,9,0.00
2013-2-21,24.0,18.4,11.0,17.3,14.1,8.0,91,83,73,30.13,29.95,6,3,11,0.00
2013-2-22,31.4,19.4,8.3,18.6,13.3,5.2,94,78,53,30.21,30.09,8,3,11,0.01
2013-2-23,44.7,28.4,16.7,25.4,14.7,4.0,91,59,27,30.09,29.68,8,4,15,0.04
2013-2-24,27.5,24.8,20.4,25.7,23.1,18.7,95,93,91,30.24,29.78,10,5,19,0.00
2013-2-25,40.9,22.1,6.6,21.2,10.9,4.2,94,67,28,30.27,30.01,5,2,8,0.04
2013-2-26,31.3,23.6,16.9,24.1,17.8,9.0,93,79,56,30.31,29.96,10,4,21,0.00
2013-2-27,35.3,23.6,13.5,19.2,10.9,5.2,86,60,33,30.42,30.31,7,3,12,0.03
2013-2-28,45.3,28.6,11.6,14.3,7.7,0.1,72,44,17,30.47,30.34,10,4,17,0.00
2013-3-1,46.9,33.9,21.9,23.4,17.7,13.0,70,53,30,30.42,30.31,6,3,10,0.00
2013-3-2,59.4,43.3,28.3,27.2,22.5,18.0,65,46,23,30.39,30.02,4,2,7,0.00
2013-3-3,60.0,48.3,40.2,25.9,22.4,18.0,53,37,21,30.02,29.55,8,3,11,0.00
2013-3-4,41.7,27.7,12.8,26.7,19.4,7.3,92,72,49,30.35,29.59,10,4,17,0.00
2013-3-5,41.4,24.4,7.2,24.1,12.0,2.3,84,62,32,30.50,30.35,6,3,11,0.00
2013-3-6,56.6,47.8,37.9,29.4,22.8,8.2,59,41,15,30.06,29.85,11,4,17,0.00
2013-3-7,63.8,49.2,36.0,28.0,20.6,14.7,66,34,16,29.90,29.75,12,3,18,0.00
2013-3-8,46.0,36.3,28.2,33.2,28.8,23.8,96,75,53,29.86,29.68,6,1,8,0.00
2013-3-9,32.3,29.5,25.4,31.3,26.2,14.7,97,88,63,30.18,29.64,12,6,22,0.00
2013-3-10,40.2,28.8,16.7,22.1,17.9,13.8,90,65,43,30.28,30.18,8,2,14,0.08
2013-3-11,50.5,37.2,28.8,30.4,21.3,16.1,94,57,28,30.18,29.93,14,4,18,0.00
2013-3-12,41.7,30.5,23.1,31.0,25.5,19.6,96,82,61,30.36,30.16,8,3,11,0.04
2013-3-13,63.1,46.9,30.5,32.1,25.4,20.3,83,47,20,30.35,30.17,7,2,14,0.00
2013-3-14,69.3,52.9,38.8,26.6,22.6,12.7,56,34,13,30.23,30.03,5,2,10,0.00
2013-3-15,72.8,59.0,47.2,28.4,22.6,16.2,40,26,12,30.03,29.67,10,4,14,0.00
2013-3-16,53.3,45.4,39.9,39.2,31.9,24.1,82,60,33,29.79,29.65,8,3,14,0.01
2013-3-17,55.2,42.4,35.2,33.3,25.2,12.4,77,53,22,29.76,29.48,13,5,18,0.00
2013-3-18,47.5,37.7,24.0,16.1,11.9,7.0,62,36,21,29.95,29.76,11,4,17,0.00
2013-3-19,52.0,37.8,22.9,20.1,10.6,-10.9,75,37,7,30.37,29.94,11,4,15,0.00
2013-3-20,60.0,38.0,18.1,23.6,17.6,10.6,81,49,15,30.36,29.77,8,2,12,0.00
2013-3-21,56.2,41.3,29.5,34.1,23.8,10.2,69,51,28,29.81,29.44,14,4,22,0.00
2013-3-22,49.3,35.4,26.8,24.4,20.2,14.2,79,56,32,29.82,29.57,12,7,21,0.00
2013-3-23,16.8,13.3,9.0,14.6,11.3,6.9,93,92,91,30.42,30.29,6,1,10,0.00
2013-3-24,25.0,13.7,-0.6,19.0,8.5,-3.5,91,81,55,30.50,30.38,5,2,9,0.05
2013-3-25,31.5,19.8,5.5,13.5,7.5,2.6,92,63,32,30.53,30.42,6,2,9,0.02
2013-3-26,53.5,35.6,19.8,29.5,18.9,9.7,88,54,24,30.42,29.98,8,4,13,0.00
2013-3-27,53.7,40.8,26.3,34.9,28.2,23.0,91,64,40,30.10,30.01,10,3,16,0.00
2013-3-28,61.7,47.5,35.4,33.4,30.1,22.9,77,53,24,30.09,29.98,8,4,12,0.00
2013-3-29,64.6,50.7,37.7,34.1,29.2,24.9,71,46,23,30.05,29.92,8,3,12,0.00
2013-3-30,64.1,49.0,37.3,37.6,29.9,18.7,89,52,18,30.11,29.86,14,3,40,0.00
2013-3-31,67.5,49.8,32.0,35.1,25.7,8.1,94,50,10,30.11,29.85,8,3,12,0.00
2013-4-1,54.6,42.8,30.0,35.6,30.3,24.7,84,63,40,30.05,29.86,8,4,12,0.00
2013-4-2,39.2,36.8,34.4,35.8,33.8,31.7,97,89,79,30.14,30.00,6,2,9,0.07
2013-4-3,58.2,44.3,35.3,39.7,30.8,18.5,97,66,24,30.18,30.05,6,2,12,0.02
2013-4-4,65.4,51.6,33.4,30.2,26.4,21.3,77,41,20,30.13,29.90,7,3,16,0.00
2013-4-5,60.9,51.9,47.7,27.4,25.2,23.6,42,36,24,29.90,29.71,7,4,12,0.00
2013-4-6,58.0,53.0,48.5,34.7,29.7,23.5,54,42,28,29.75,29.69,11,7,16,0.00
2013-4-7,62.6,51.1,36.3,35.6,28.3,20.4,86,46,21,29.73,29.56,10,4,17,0.00
2013-4-8,68.1,55.4,34.4,35.7,26.4,18.1,84,39,16,29.53,29.23,16,8,25,0.00
2013-4-9,17.1,13.7,9.8,11.9,9.2,6.3,88,82,75,30.41,29.99,10,7,17,0.00
2013-4-10,24.8,19.9,10.0,16.0,11.5,5.0,81,70,53,30.47,30.26,6,3,15,0.02
2013-4-11,52.4,38.6,21.8,34.6,24.6,15.5,80,59,38,30.16,29.88,11,4,19,0.00
2013-4-12,58.7,44.0,33.1,36.4,31.2,17.5,92,64,21,29.95,29.83,14,5,19,0.00
2013-4-13,66.8,49.9,32.5,33.0,25.7,14.2,93,49,14,29.93,29.33,10,6,17,0.00
2013-4-14,49.4,45.4,39.0,28.2,15.5,5.1,60,32,19,29.61,29.42,16,8,25,0.23
2013-4-15,34.9,29.0,22.5,27.1,24.8,20.8,94,85,69,30.01,29.72,9,4,21,0.00
2013-4-16,44.7,34.8,30.0,32.6,27.9,24.5,92,76,55,30.06,29.87,12,8,22,0.13
2013-4-17,29.9,25.8,19.3,27.9,23.6,17.2,95,91,88,30.23,29.96,11,6,16,0.00
2013-4-18,33.5,28.8,19.6,21.3,16.2,11.8,78,59,48,30.34,30.30,7,4,11,0.00
2013-4-19,54.5,47.4,33.9,21.9,18.2,14.2,49,32,24,30.26,29.99,6,3,11,0.01
2013-4-20,56.5,49.6,38.4,34.0,28.1,23.9,66,44,32,29.92,29.82,6,3,12,0.00
2013-4-21,60.6,54.4,44.0,32.7,25.0,20.1,62,33,22,30.03,29.89,9,4,14,0.00
2013-4-22,52.0,33.0,22.9,37.2,27.2,20.4,91,80,49,30.26,29.83,12,6,18,0.00
2013-4-23,34.6,26.9,18.7,20.7,17.6,15.5,91,68,53,30.40,30.32,5,2,13,0.18
2013-4-24,52.8,45.3,28.5,22.2,18.0,12.2,70,36,21,30.35,30.23,8,4,12,0.01
2013-4-25,63.8,57.2,42.5,31.0,22.2,9.3,46,27,16,30.09,29.81,8,4,14,0.00
2013-4-26,63.0,58.2,46.3,27.7,22.3,18.1,47,25,19,30.11,30.05,8,4,15,0.00
2013-4-27,66.7,61.3,53.6,29.5,22.2,13.5,37,23,14,30.08,30.03,6,3,8,0.00
2013-4-28,75.8,72.6,64.9,31.0,25.0,19.1,25,17,14,29.75,29.63,7,3,10,0.00
2013-4-29,77.8,69.6,49.4,36.4,27.2,19.9,55,22,13,29.61,29.38,9,4,14,0.00
2013-4-30,58.4,52.7,43.5,40.1,37.1,33.8,70,56,49,29.68,29.50,10,5,16,0.00
2013-5-1,32.0,28.9,24.4,31.0,27.0,22.7,96,92,88,30.64,30.13,9,5,15,0.06
2013-5-2,43.5,38.4,29.7,25.9,19.1,13.5,72,46,33,30.85,30.60,5,2,14,0.14
2013-5-3,57.4,53.5,41.6,26.6,22.5,16.4,49,30,21,30.36,30.07,8,4,14,0.00
2013-5-4,57.4,52.0,43.4,32.8,29.2,25.8,59,42,34,30.10,30.03,7,5,19,0.00
2013-5-5,58.4,52.5,42.3,30.9,26.9,20.6,52,38,25,30.14,29.99,8,3,19,0.00
2013-5-6,62.4,57.0,46.5,38.2,34.1,27.1,58,42,35,29.98,29.80,6,3,9,0.00
2013-5-7,67.1,60.8,51.8,42.7,36.4,31.1,71,42,27,29.83,29.72,10,4,13,0.00
2013-5-8,59.0,48.1,43.5,45.3,42.3,39.2,94,82,53,29.96,29.82,11,3,16,0.37
2013-5-9,55.5,49.6,44.6,46.9,43.2,39.8,95,79,64,30.12,30.08,8,3,14,0.00
2013-5-10,63.2,56.0,40.3,43.3,38.3,33.7,86,53,37,30.19,30.11,11,4,18,0.00
2013-5-11,67.1,59.9,50.1,44.3,38.1,31.2,72,47,28,30.30,30.10,13,3,20,0.01
2013-5-12,74.4,69.2,58.7,41.3,35.1,30.3,50,29,22,30.09,29.93,6,4,11,0.00
2013-5-13,81.4,77.4,64.8,43.3,38.1,33.4,40,25,19,29.95,29.81,6,3,11,0.00
2013-5-14,82.6,74.8,66.0,44.3,39.7,32.5,43,29,17,29.73,29.63,12,5,19,0.00
2013-5-15,79.5,68.2,57.7,46.9,43.2,37.8,61,42,24,29.71,29.60,9,3,14,0.00
2013-5-16,79.6,73.3,62.5,45.5,38.7,31.8,53,30,19,29.68,29.56,6,4,12,0.00
2013-5-17,84.8,78.5,65.2,46.6,27.5,16.3,51,17,8,29.62,29.44,10,4,14,0.00
2013-5-18,75.5,67.8,58.2,36.7,31.8,27.2,39,27,19,29.61,29.46,14,3,19,0.00
2013-5-19,67.7,62.0,52.6,40.5,31.5,23.9,61,33,21,29.63,29.54,10,5,14,0.00
2013-5-20,60.5,51.5,45.8,47.1,44.1,36.4,91,77,43,29.87,29.72,6,4,14,0.25
2013-5-21,66.9,61.1,50.4,38.2,33.9,29.8,56,37,28,29.95,29.74,9,4,15,0.00
2013-5-22,74.0,67.9,54.6,40.7,36.7,32.0,56,33,22,29.80,29.67,11,4,20,0.00
2013-5-23,66.9,62.8,55.3,48.3,45.6,44.1,70,54,46,29.86,29.72,13,9,23,0.00
2013-5-24,85.2,77.6,62.3,50.9,29.6,11.9,63,20,7,29.79,29.60,12,6,21,0.00
2013-5-25,85.7,78.0,59.5,51.5,27.1,5.6,69,21,5,29.70,29.54,9,3,12,0.00
2013-5-26,84.0,75.7,65.6,41.5,29.1,10.9,36,19,7,29.64,29.52,15,5,28,0.00
2013-5-27,81.1,75.6,65.2,45.5,24.3,16.1,48,16,10,29.55,29.43,8,4,18,0.00
2013-5-28,80.8,72.2,54.4,45.8,38.0,27.5,66,32,15,29.55,29.28,11,6,18,0.00
2013-5-29,62.8,56.9,52.8,49.0,44.1,31.9,81,64,37,29.44,29.34,8,4,13,0.05
2013-5-30,68.1,63.8,57.2,33.3,25.6,18.0,40,24,15,29.63,29.55,15,9,24,0.00
2013-5-31,69.1,65.3,56.8,27.5,16.2,4.5,32,16,8,29.74,29.68,13,8,21,0.00
2013-6-1,66.8,61.4,50.3,38.1,35.4,31.8,62,39,31,30.03,29.97,8,5,16,0.00
2013-6-2,83.1,73.0,57.9,40.8,34.2,25.1,50,27,13,29.95,29.65,8,3,15,0.00
2013-6-5,55.1,53.7,51.9,47.7,46.9,45.4,81,78,75,30.04,29.97,5,2,8,0.01
2013-6-6,76.4,69.1,52.7,46.7,39.8,34.1,78,37,22,30.00,29.85,6,3,10,0.01
2013-6-7,81.1,70.1,51.1,43.9,40.2,34.0,68,36,19,29.85,29.56,10,3,15,0.00
2013-6-8,74.3,66.9,59.1,49.2,41.5,37.3,55,40,30,29.77,29.50,10,5,21,0.00
2013-6-9,89.1,84.5,77.3,35.8,32.7,29.3,20,16,14,29.80,29.64,7,4,21,0.00
2013-6-10,95.0,89.7,77.1,39.1,30.6,25.4,24,12,9,29.61,29.45,18,5,21,0.00
2013-6-11,97.4,92.4,79.7,38.2,15.1,-5.9,20,7,2,29.52,29.36,14,8,26,0.00
2013-6-12,91.2,83.6,66.2,35.5,29.5,23.6,28,15,9,29.76,29.61,12,6,21,0.00
2013-6-13,92.6,79.4,60.5,56.5,52.5,36.3,82,42,18,29.76,29.53,9,4,20,0.00
2013-6-14,87.6,80.1,67.5,46.3,38.8,28.0,46,24,13,29.62,29.50,19,8,27,0.00
2013-6-15,80.3,71.6,63.0,50.3,47.2,41.6,58,43,28,29.78,29.69,7,4,12,0.00
2013-6-16,82.5,74.6,65.4,47.6,40.1,30.4,46,30,17,29.90,29.75,14,5,19,0.00
2013-6-17,81.1,74.2,66.3,45.0,40.9,35.3,43,31,20,29.90,29.77,7,3,18,0.00
2013-6-18,85.3,74.1,59.6,53.4,47.1,38.3,78,41,22,29.85,29.59,14,5,23,0.00
2013-6-19,91.9,82.6,58.8,54.1,39.2,27.1,79,28,11,29.64,29.34,13,8,23,0.00
2013-6-20,74.9,72.6,70.3,36.1,29.0,24.4,28,20,16,29.60,29.59,7,5,12,0.00
2013-6-21,88.8,80.3,67.2,43.6,31.8,16.2,40,20,7,29.59,29.52,6,3,13,0.00
2013-6-22,87.1,78.5,66.8,48.9,44.5,34.8,49,31,16,29.60,29.43,10,5,17,0.00
2013-6-23,67.2,63.0,60.2,54.1,51.0,46.1,79,65,52,29.74,29.55,10,3,12,0.33
2013-6-24,88.3,79.7,66.0,51.0,38.1,23.4,54,27,10,29.65,29.47,11,5,20,0.00
2013-6-25,89.0,82.6,68.8,38.5,31.9,25.1,27,16,12,29.61,29.55,6,3,13,0.00
2013-6-26,94.5,86.2,73.0,44.3,36.7,30.2,30,18,12,29.76,29.63,7,4,13,0.00
2013-6-27,74.1,69.1,62.3,43.7,41.0,37.6,47,36,27,29.81,29.72,5,2,8,0.00
2013-6-30,74.8,69.7,60.8,57.8,56.0,54.1,87,63,52,29.92,29.84,7,4,11,0.09
2013-7-1,78.6,73.4,65.1,56.8,51.0,44.5,72,47,32,30.02,29.95,8,4,13,0.00
2013-7-4,88.9,83.7,74.0,46.8,42.3,36.5,38,24,17,29.66,29.57,7,5,13,0.00
2013-7-5,89.9,80.6,70.8,56.2,49.8,45.5,58,35,23,29.58,29.48,10,3,14,0.00
2013-7-6,87.6,81.5,73.1,52.9,48.0,42.6,47,32,22,29.63,29.58,10,3,15,0.00
2013-7-7,86.2,78.2,69.5,57.5,50.9,44.4,55,39,26,29.72,29.66,9,3,14,0.00
2013-7-8,93.2,86.4,74.9,49.3,44.8,38.3,39,24,15,29.75,29.66,11,6,17,0.00
2013-7-9,93.2,85.4,66.2,48.8,40.2,31.0,47,22,12,29.81,29.75,11,4,17,0.00
2013-7-10,88.8,82.2,70.1,55.9,50.7,46.2,52,34,25,29.84,29.68,11,5,15,0.00
2013-7-11,97.6,88.5,70.3,56.1,49.9,39.6,59,29,14,29.72,29.50,13,7,22,0.00
2013-7-12,90.3,81.9,68.9,60.4,52.6,47.8,74,38,24,29.69,29.56,10,5,22,0.03
2013-7-13,90.5,78.9,62.6,61.9,56.2,49.1,93,49,26,29.81,29.66,14,4,16,0.09
2013-7-14,79.6,73.1,66.0,63.0,59.1,55.5,86,63,46,29.92,29.83,8,4,15,0.48
2013-7-15,76.4,70.5,64.4,62.9,57.5,49.0,91,65,41,29.89,29.83,9,5,16,0.17
2013-7-16,79.8,73.6,59.1,51.9,49.0,46.3,71,43,32,29.92,29.87,11,7,18,0.00
2013-7-17,86.2,80.2,66.6,55.1,50.0,44.0,65,37,25,29.94,29.80,10,8,18,0.00
2013-7-18,91.2,82.3,71.8,54.0,50.9,47.5,50,35,23,29.81,29.69,13,6,20,0.00
2013-7-19,77.9,72.1,68.2,56.1,54.3,52.0,64,54,41,29.84,29.83,5,2,12,0.00
2013-7-20,91.1,87.2,79.8,58.4,47.3,39.8,46,26,17,29.67,29.57,11,6,20,0.00
2013-7-21,89.8,87.6,80.0,50.9,44.3,37.8,28,22,19,29.57,29.56,6,4,10,0.00
2013-7-22,79.9,77.9,76.4,46.0,45.1,44.4,33,31,30,29.64,29.63,2,1,10,0.00
2013-7-26,86.5,77.5,58.7,52.5,46.5,39.4,74,36,20,30.05,29.86,7,3,12,0.00
2013-7-27,79.4,73.1,63.5,59.6,53.5,50.1,87,51,40,29.77,29.68,6,4,11,0.07
2013-7-28,73.4,68.1,64.3,60.4,59.1,56.7,84,73,58,29.73,29.67,6,3,9,0.04
2013-7-29,72.0,67.9,60.1,61.0,58.1,54.0,93,72,57,29.89,29.77,8,4,12,0.00
2013-7-30,87.2,80.2,65.9,54.8,46.9,42.7,66,33,23,29.97,29.88,9,4,14,0.08
2013-8-1,90.9,82.9,75.2,51.1,44.2,33.7,40,27,14,29.73,29.63,16,6,17,0.00
2013-8-2,85.6,81.6,76.9,50.1,47.1,43.3,39,30,23,29.69,29.67,3,2,5,0.00
2013-8-3,79.5,67.2,56.5,64.1,57.7,52.6,94,73,53,29.95,29.69,15,9,22,1.57
2013-8-4,87.6,81.5,69.9,55.8,47.7,36.9,58,33,17,29.87,29.80,10,4,13,0.02
2013-8-5,86.2,79.8,67.6,54.7,49.1,44.7,62,35,25,29.77,29.69,6,4,10,0.00
2013-8-8,75.6,69.7,61.3,58.2,54.2,49.0,79,59,41,29.91,29.84,6,3,8,0.00
2013-8-9,79.1,72.4,60.3,56.1,48.5,44.1,86,44,31,30.00,29.91,7,4,13,0.06
2013-8-10,85.8,75.5,60.8,54.2,45.7,36.3,77,40,18,29.95,29.84,7,4,12,0.29
2013-8-11,78.4,71.1,61.9,56.8,51.1,45.5,66,50,33,29.92,29.85,10,2,10,0.09
2013-8-12,79.8,65.2,54.0,57.4,51.6,47.5,95,63,37,30.01,29.86,10,3,13,0.27
2013-8-13,76.7,65.1,54.9,57.2,51.9,47.0,95,65,36,30.00,29.91,11,3,11,0.03
2013-8-14,80.0,65.3,51.6,55.4,48.9,39.6,95,61,28,29.98,29.86,6,2,10,0.00
2013-8-15,83.4,69.9,56.5,53.6,45.9,33.5,72,46,19,29.91,29.81,8,3,14,0.00
2013-8-16,80.0,64.3,56.0,50.9,47.4,40.0,71,56,24,29.89,29.81,4,2,6,0.00
2013-8-17,91.6,75.6,59.0,55.0,41.1,20.8,62,35,8,29.86,29.67,8,3,12,0.00
2013-8-18,93.1,77.7,60.8,56.0,47.9,35.9,76,41,14,29.75,29.66,7,3,13,0.00
2013-8-19,92.9,77.4,60.7,50.8,45.0,34.8,63,36,14,29.78,29.67,7,3,11,0.00
2013-8-20,94.0,79.6,64.3,50.4,41.3,25.2,49,29,9,29.72,29.58,8,4,12,0.00
2013-8-21,88.4,74.5,62.0,54.6,46.7,41.9,69,39,22,29.79,29.66,10,2,13,0.00
2013-8-22,82.0,67.5,60.2,62.5,57.3,52.7,83,71,42,29.91,29.79,4,1,5,0.00
2013-8-24,78.3,70.5,64.1,61.5,56.9,50.2,82,64,38,29.84,29.72,6,2,7,0.05
2013-8-25,87.7,71.4,60.9,62.1,54.4,48.1,87,60,26,29.84,29.75,5,3,14,0.09
2013-8-26,89.6,76.2,62.7,58.5,53.1,48.6,82,48,25,29.82,29.71,9,3,14,0.00
2013-8-27,89.8,75.9,61.8,58.3,53.6,47.3,80,50,24,29.81,29.67,7,2,12,0.00
2013-8-28,91.3,75.9,60.3,55.4,49.4,40.7,74,44,18,29.78,29.68,6,2,11,0.00
2013-8-29,92.7,76.8,62.9,52.6,47.4,41.9,57,39,18,29.83,29.74,6,3,7,0.00
2013-8-30,91.0,74.8,65.9,56.6,51.1,42.3,63,45,19,29.83,29.73,10,2,13,0.00
2013-8-31,89.4,75.0,63.4,55.2,50.5,44.6,65,45,22,29.77,29.69,11,4,15,0.00
2013-9-1,68.0,64.4,61.2,57.5,54.4,51.4,82,70,56,29.89,29.77,4,1,7,0.00
2013-9-3,88.0,79.2,70.4,55.6,50.7,45.9,54,39,24,29.76,29.69,5,2,9,0.00
2013-9-4,91.0,76.1,68.5,55.7,52.2,47.9,59,45,23,29.84,29.76,7,2,9,0.00
2013-9-5,94.7,74.5,63.3,54.2,49.7,41.9,69,47,17,29.88,29.76,7,2,14,0.00
2013-9-6,94.1,78.6,62.6,50.2,44.1,37.8,57,32,15,29.82,29.67,8,3,12,0.00
2013-9-7,92.0,75.7,61.2,51.0,44.9,32.9,66,39,13,29.78,29.66,8,3,10,0.00
2013-9-8,91.1,73.8,58.7,52.6,44.8,38.7,67,38,17,29.71,29.51,13,3,16,0.00
2013-9-9,83.4,68.0,56.5,57.4,52.2,49.3,86,60,31,29.72,29.54,11,3,14,0.00
2013-9-10,65.2,60.4,58.9,58.8,56.3,54.5,95,87,70,29.95,29.76,6,2,8,0.17
2013-9-11,72.0,62.2,58.4,60.8,59.1,55.1,97,90,57,29.98,29.91,7,2,10,1.58
2013-9-12,63.4,59.8,56.9,62.5,58.9,55.8,98,97,93,30.04,29.95,10,3,14,3.35
2013-9-13,72.2,63.4,57.1,62.0,58.0,56.3,99,84,62,29.97,29.67,11,4,20,0.70
2013-9-14,77.8,62.3,54.5,58.8,55.5,51.2,96,81,40,29.81,29.60,7,2,10,1.63
2013-9-15,61.2,56.3,53.4,57.0,54.9,52.6,98,95,81,30.09,29.81,6,2,11,0.18
2013-9-16,74.3,57.7,49.1,58.1,53.2,48.7,99,87,56,30.09,29.86,7,2,16,0.01
2013-9-17,82.1,68.6,55.8,54.8,47.0,33.6,87,52,18,29.88,29.57,7,4,10,0.00
2013-9-18,82.5,70.3,61.3,51.7,46.8,39.3,64,45,22,29.61,29.46,15,4,17,0.00
2013-9-19,62.5,58.1,50.7,46.4,42.9,32.1,73,57,34,29.89,29.61,6,2,8,0.00
2013-9-22,77.1,66.8,53.4,50.9,46.7,42.9,90,52,32,29.41,29.31,15,5,23,0.10
2013-9-23,63.7,55.7,47.7,50.9,40.6,30.6,96,63,30,29.92,29.27,13,6,25,0.93
2013-9-24,73.7,58.7,42.0,39.5,33.7,29.2,68,41,21,30.01,29.68,8,4,13,0.00
2013-9-25,80.7,66.5,52.7,39.7,33.6,27.3,55,33,15,29.67,29.23,13,6,27,0.00
2013-9-26,70.1,58.1,42.1,50.4,42.9,29.5,91,60,22,29.53,29.29,6,2,27,0.00
2013-9-27,49.7,46.5,37.5,48.6,44.7,36.7,98,94,85,29.95,29.53,6,2,13,0.23
2013-9-28,65.7,50.5,33.5,38.1,31.2,22.0,98,54,21,30.13,29.96,6,2,13,0.00
2013-9-29,71.9,55.1,44.6,34.1,27.7,22.5,51,37,17,30.05,29.76,5,3,8,0.00
2013-10-1,74.9,67.7,57.1,43.2,39.1,35.6,50,36,25,29.84,29.69,11,5,24,0.00
2013-10-2,73.1,60.7,44.4,45.2,40.1,33.4,81,50,25,29.79,29.65,8,3,12,0.00
2013-10-3,64.6,57.9,47.6,48.8,46.1,42.6,95,67,50,29.65,29.53,7,4,13,0.00
2013-10-4,47.7,36.9,28.5,46.4,33.3,23.1,97,88,59,30.22,29.62,9,4,21,0.27
2013-10-5,57.2,40.2,24.5,30.6,21.5,14.1,92,56,19,30.34,30.20,9,3,15,0.00
2013-10-6,54.9,40.2,34.4,24.6,17.7,13.2,52,40,29,30.26,30.23,4,2,6,0.00
2013-10-9,63.0,53.2,42.9,43.2,38.2,32.3,92,58,41,29.83,29.58,5,2,12,0.00
2013-10-10,57.0,51.3,46.6,47.5,41.7,38.3,75,70,58,29.47,29.41,10,4,18,0.00
2013-10-11,61.1,53.2,42.4,39.6,33.2,27.1,81,49,32,29.88,29.56,8,4,14,0.00
2013-10-12,57.8,47.8,37.2,41.6,37.7,33.5,95,71,45,30.11,29.95,11,4,19,0.00
2013-10-13,65.7,51.7,36.6,46.7,37.5,32.5,85,61,36,30.07,29.75,11,4,24,0.00
2013-10-14,54.7,47.1,37.1,44.1,39.7,31.2,96,76,44,30.12,29.66,13,4,19,0.27
2013-10-15,38.8,35.1,30.6,31.5,27.0,24.2,80,72,65,30.32,30.11,8,2,13,0.00
2013-10-16,51.9,36.8,25.5,32.0,26.6,23.1,95,70,33,30.27,30.06,8,2,9,0.00
2013-10-17,49.2,40.3,31.7,33.2,28.1,22.4,79,62,48,30.13,30.00,12,3,15,0.00
2013-10-18,39.7,34.2,28.9,32.9,28.9,26.4,96,82,63,30.22,30.02,11,2,12,0.20
2013-10-19,61.3,46.4,32.5,30.8,23.1,19.8,78,43,21,30.20,29.88,11,4,16,0.00
2013-10-20,46.8,40.2,32.8,36.5,30.1,22.2,96,70,43,30.13,29.83,15,2,15,0.14
2013-10-21,54.9,41.5,28.6,36.9,28.4,20.9,95,65,31,30.25,30.13,11,2,12,0.00
2013-10-22,60.9,53.4,35.8,34.9,30.5,25.0,67,43,30,30.19,30.05,9,2,11,0.00
2013-10-23,62.1,51.5,40.3,35.1,30.8,26.1,73,46,32,30.11,30.01,11,3,14,0.00
2013-10-24,55.7,42.4,31.8,41.4,34.9,29.4,92,76,55,30.23,30.10,6,1,8,0.00
2013-10-25,66.0,48.2,33.5,38.5,32.7,28.7,90,61,26,30.21,30.04,11,2,11,0.00
2013-10-26,60.6,47.1,33.9,38.5,33.5,30.8,92,62,34,30.30,30.08,9,1,11,0.00
2013-10-27,66.8,53.5,42.5,32.7,26.5,20.6,63,38,18,30.08,29.72,8,3,9,0.00
2013-10-28,43.5,36.4,31.0,34.0,29.7,22.8,96,79,46,30.01,29.73,11,2,11,0.00
2013-10-29,43.6,36.9,32.1,35.2,32.9,31.0,97,86,70,30.08,29.90,11,3,12,0.01
2013-10-30,52.1,39.2,31.1,37.6,32.1,21.6,98,79,32,29.93,29.78,14,3,19,0.10
2013-10-31,51.7,39.7,28.9,29.9,24.0,18.5,95,58,28,29.92,29.83,19,4,23,0.00
2013-11-1,48.7,41.2,31.0,32.4,26.6,21.5,81,57,35,30.22,29.92,12,2,16,0.00
2013-11-2,69.1,47.1,27.6,25.7,20.8,8.5,78,43,11,30.24,29.71,10,3,11,0.00
2013-11-3,65.5,54.9,33.6,28.4,17.2,8.6,80,25,12,29.70,29.35,17,5,18,0.00
2013-11-4,44.4,34.3,25.8,29.1,22.7,14.0,93,64,39,29.99,29.68,17,5,24,0.00
2013-11-5,39.9,31.6,21.3,25.4,16.9,6.6,84,56,32,30.26,29.93,14,4,16,0.00
2013-11-6,50.1,35.7,21.7,18.8,10.5,1.8,53,36,24,30.35,30.24,23,5,25,0.00
2013-11-7,59.9,48.8,43.0,23.3,20.6,18.4,38,33,24,30.17,29.98,10,4,12,0.00
2013-11-8,64.8,53.9,45.5,25.7,20.0,13.8,36,27,15,29.98,29.69,14,4,15,0.00
2013-11-9,65.0,51.8,36.2,31.7,26.6,21.4,76,41,20,30.17,29.98,11,2,12,0.00
2013-11-10,47.9,36.1,32.0,29.5,27.2,25.0,76,70,43,30.20,30.14,8,2,11,0.00
2013-11-11,63.7,42.5,28.2,33.5,24.1,17.7,95,55,17,30.60,30.14,10,3,18,0.00
2013-11-12,59.9,48.5,28.1,31.5,27.4,23.4,95,46,25,30.64,30.37,11,4,13,0.00
2013-11-13,66.2,49.3,32.9,24.8,14.9,2.6,62,29,8,30.37,29.93,10,2,10,0.00
2013-11-14,57.1,47.3,40.9,34.9,27.6,14.1,66,48,28,29.98,29.67,13,3,17,0.00
2013-11-15,61.5,49.8,37.9,29.6,19.7,11.4,64,33,14,29.67,29.37,18,6,21,0.00
2013-11-16,57.4,44.4,33.5,31.1,22.5,14.2,86,47,19,29.49,29.20,28,4,28,0.00
2013-11-17,54.0,41.4,32.6,30.0,19.9,14.0,80,44,22,30.07,29.48,17,5,24,0.00
2013-11-18,63.8,44.3,29.7,19.2,13.5,5.1,50,31,11,30.16,29.99,12,3,16,0.00
2013-11-19,58.4,47.1,33.0,23.7,17.4,11.5,46,31,16,29.99,29.64,8,2,9,0.00
2013-11-20,55.5,45.2,27.3,27.1,23.4,20.2,87,43,26,29.94,29.67,19,2,22,0.00
2013-11-21,26.8,15.3,11.1,24.0,12.0,6.9,92,86,78,30.84,29.94,13,3,16,0.00
2013-11-22,36.7,25.7,13.5,20.9,13.7,5.3,84,63,30,30.86,30.71,5,1,7,0.04
2013-11-23,36.9,28.0,23.7,21.2,16.0,7.6,79,61,45,30.78,30.42,14,3,16,0.01
2013-11-24,35.7,28.7,22.5,26.1,22.0,16.2,89,76,55,30.42,30.08,13,2,18,0.00
2013-11-25,36.6,32.3,25.4,29.5,23.4,16.7,91,71,46,30.40,30.14,16,3,18,0.03
2013-11-26,45.2,34.6,24.0,25.8,21.2,18.2,87,60,35,30.53,30.32,12,2,12,0.00
2013-11-27,62.1,44.8,31.6,21.4,18.3,14.8,60,38,16,30.32,30.03,12,3,12,0.00
2013-11-28,49.5,36.1,27.0,27.8,23.6,19.6,79,62,38,30.19,30.07,7,1,8,0.00
2013-11-29,59.2,43.6,27.8,24.8,20.3,16.3,79,44,20,30.19,30.09,8,2,8,0.00
2013-11-30,57.3,42.3,32.1,19.9,14.8,9.5,57,35,16,30.17,30.07,8,2,9,0.00
2013-12-1,53.9,42.1,28.3,25.5,17.2,12.2,54,37,24,30.16,29.84,19,2,19,0.00
2013-12-2,57.9,48.4,38.2,25.0,21.5,19.0,50,35,23,29.85,29.47,20,3,25,0.00
2013-12-3,57.4,33.9,10.2,29.8,17.9,6.7,89,57,24,29.77,29.35,20,4,21,0.00
2013-12-4,10.0,4.6,-4.4,6.8,1.0,-8.6,87,84,80,30.45,29.76,10,3,11,0.00
2013-12-5,7.0,-2.1,-11.1,0.7,-6.6,-14.6,88,81,67,30.60,30.41,7,1,9,0.00
2013-12-6,8.4,-1.9,-11.1,-0.9,-7.0,-14.8,88,79,60,30.71,30.59,6,1,7,0.00
2013-12-7,9.5,0.7,-9.8,2.7,-3.4,-13.3,88,83,70,30.68,30.22,7,1,9,0.00
2013-12-8,20.9,7.4,-1.9,10.2,2.1,-5.1,89,79,60,30.37,30.11,11,1,11,0.00
2013-12-9,25.3,11.7,-1.9,5.5,-1.0,-5.3,89,61,27,30.49,30.34,11,2,12,0.00
2013-12-10,45.8,28.7,7.5,17.5,7.9,-5.5,63,43,26,30.48,30.13,14,3,18,0.00
2013-12-11,41.6,24.8,11.0,21.5,14.1,7.3,86,65,38,30.50,30.36,11,2,15,0.00
2013-12-12,56.7,37.0,23.6,21.2,11.9,5.3,63,39,13,30.50,29.97,6,2,9,0.01
2013-12-13,48.5,33.5,22.3,19.5,14.2,7.2,68,46,21,30.23,29.86,14,2,16,0.00
2013-12-14,42.6,32.7,21.5,19.8,17.0,13.8,87,55,31,30.39,30.23,9,2,13,0.00
2013-12-15,55.9,37.7,25.8,22.3,16.9,13.7,66,45,22,30.29,30.13,11,2,14,0.00
2013-12-16,60.6,48.2,35.1,23.4,15.8,9.2,43,29,13,30.18,30.03,16,3,18,0.00
2013-12-17,60.8,45.1,29.8,20.9,16.5,11.6,53,33,17,30.29,30.03,9,2,10,0.00
2013-12-18,64.5,51.9,42.2,20.5,15.4,10.4,40,24,12,30.03,29.58,12,2,14,0.00
2013-12-19,55.9,36.9,15.1,26.6,20.1,12.8,92,54,24,29.84,29.40,16,3,17,0.00
2013-12-20,25.3,20.4,14.7,22.5,18.3,12.6,93,91,86,29.89,29.80,6,1,7,0.00
2013-12-21,29.4,22.2,14.0,23.4,18.6,11.5,95,86,72,30.08,29.73,8,1,10,0.00
2013-12-22,39.2,27.4,16.0,20.3,15.2,9.1,95,65,30,30.36,30.08,13,3,26,0.00
2013-12-23,36.0,20.4,13.2,21.9,16.3,10.8,93,85,51,30.43,30.35,7,1,7,0.00
2013-12-24,53.9,37.3,21.6,27.2,20.9,14.2,77,53,25,30.32,29.99,15,4,28,0.00
2013-12-25,44.7,30.1,14.8,14.2,8.8,4.0,71,43,19,30.53,30.30,6,3,13,0.00
2013-12-26,50.0,38.3,29.4,15.5,11.3,5.6,43,33,19,30.38,30.27,7,3,13,0.00
2013-12-27,57.8,41.8,32.8,20.9,16.8,12.8,47,37,22,30.31,30.18,5,3,10,0.00
2013-12-28,58.4,44.7,31.9,25.1,20.0,15.6,75,39,23,30.04,29.77,17,3,27,0.00
2013-12-30,46.0,37.6,31.7,17.7,15.0,11.0,54,41,24,30.26,30.14,10,3,14,0.00
2013-12-31,55.2,41.7,31.4,23.0,18.7,12.6,58,41,25,30.14,29.89,9,2,15,0.00
2014-1-1,38.4,29.7,19.0,30.1,23.9,16.3,95,80,50,30.39,29.87,17,2,21,0.05
2014-1-2,46.7,25.6,16.9,19.8,15.1,11.0,91,67,29,30.44,30.32,8,2,9,0.02